Weather History for Wichita, KS

Change the Weather History Date:

Tuesday, July 8, 2014

  Actual Average Record
Temperature  
Mean Temperature 79 °F 81 °F  
Max Temperature 86 °F 92 °F 108 °F (1980)
Min Temperature 71 °F 70 °F 55 °F (1952)
Degree Days  
Heating Degree Days 0 0  
Month to date heating degree days 0 0  
Since 1 June heating degree days 0 6  
Since 1 July heating degree days 0 0  
Cooling Degree Days 14 16  
Month to date cooling degree days 99 123  
Year to date cooling degree days 708 588  
Since 1 June cooling degree days 441 452  
Growing Degree Days 30 (Base 50)    
Moisture  
Dew Point 59 °F    
Average Humidity 52    
Maximum Humidity 68    
Minimum Humidity 35    
Precipitation  
Precipitation 0.00 in 0.12 in 3.08 in (1944)
Month to date precipitation 1.12 0.99  
Year to date precipitation 17.65 18.05  
Snow  
Snow 0.00 in 0.00 in 0.00 in (2007)
Month to date snowfall 0.0 0.0  
Since 1 June snowfall 0.0 0.0  
Since 1 July snowfall 0.0 0.0  
Snow Depth 0.00 in    
Sea Level Pressure  
Sea Level Pressure 29.96 in    
Wind  
Wind Speed 10 mph (North)    
Max Wind Speed 23 mph    
Max Gust Speed 27 mph    
Visibility 10 miles    
Events      
T = Trace of Precipitation, MM = Missing Value Source: NWS Daily Summary

Daily Weather History Graph

Daily Weather History Graph

Search for Another Location

Airport:

Trip Planner

Search our weather history database for the weather conditions in past years. The results will help you decide how hot, cold, wet, or windy it might be!

Date:

Astronomy

Jul. 08, 2014 Rise Set
Actual Time 6:15 AM CDT 8:53 PM CDT
Civil Twilight 5:44 AM CDT 9:24 PM CDT
Nautical Twilight 5:06 AM CDT 10:02 PM CDT
Astronomical Twilight 4:23 AM CDT 10:45 PM CDT
Moon 5:04 PM CDT (7/8) 2:46 AM CDT (7/8)
Length of Visible Light 15h 39m
Length of Day
14h 38m
Waxing Gibbous, 81% of the Moon is Illuminated
Jul 8
Waxing Gibbous
Jul 12
Full
Jul 18
Last Quarter
Jul 26
New
Aug 3
First Quarter

Hourly Weather History & Observations

Time (CDT) Temp. Heat Index Dew Point Humidity Pressure Visibility Wind Dir Wind Speed Gust Speed Precip Events Conditions
12:53 AM 84.0 °F 84.4 °F 61.0 °F 46% 29.81 in 10.0 mi NNW 10.4 mph - N/A   Overcast
1:53 AM 81.0 °F 81.9 °F 62.1 °F 52% 29.83 in 10.0 mi NE 8.1 mph - N/A   Mostly Cloudy
2:53 AM 77.0 °F - 62.1 °F 60% 29.85 in 10.0 mi North 12.7 mph - N/A   Scattered Clouds
3:53 AM 73.9 °F - 63.0 °F 68% 29.87 in 10.0 mi NNE 12.7 mph - N/A   Scattered Clouds
4:53 AM 73.9 °F - 63.0 °F 68% 29.91 in 10.0 mi NNE 12.7 mph - N/A   Scattered Clouds
5:53 AM 73.9 °F - 63.0 °F 68% 29.93 in 10.0 mi NNE 10.4 mph - N/A   Overcast
6:53 AM 73.9 °F - 63.0 °F 68% 29.94 in 10.0 mi NNE 10.4 mph - N/A   Overcast
7:53 AM 73.9 °F - 63.0 °F 68% 29.99 in 10.0 mi North 16.1 mph - N/A   Mostly Cloudy
8:53 AM 73.0 °F - 63.0 °F 71% 29.96 in 10.0 mi NE 16.1 mph - N/A   Mostly Cloudy
9:53 AM 73.9 °F - 62.1 °F 66% 29.99 in 10.0 mi North 16.1 mph 23.0 mph N/A   Mostly Cloudy
10:53 AM 77.0 °F - 62.1 °F 60% 30.01 in 10.0 mi North 10.4 mph - N/A   Mostly Cloudy
11:53 AM 78.1 °F - 61.0 °F 56% 30.02 in 10.0 mi NNE 12.7 mph - N/A   Mostly Cloudy
12:53 PM 80.1 °F 80.6 °F 57.9 °F 47% 30.02 in 10.0 mi NNE 12.7 mph - N/A   Mostly Cloudy
1:53 PM 82.0 °F 81.7 °F 57.0 °F 42% 30.01 in 10.0 mi NNE 12.7 mph - N/A   Mostly Cloudy
2:53 PM 81.0 °F 80.7 °F 55.0 °F 41% 30.02 in 10.0 mi NNW 11.5 mph - N/A   Mostly Cloudy
3:53 PM 80.6 °F 80.5 °F 55.4 °F 42% 30.06 in 10.0 mi NNW 9.2 mph - N/A   Mostly Cloudy
4:53 PM 84.9 °F 83.9 °F 57.0 °F 38% 30.00 in 10.0 mi NNW 6.9 mph - N/A   Scattered Clouds
5:53 PM 86.0 °F 84.5 °F 55.0 °F 35% 29.99 in 10.0 mi NW 3.5 mph - N/A   Scattered Clouds
6:53 PM 84.2 °F 83.0 °F 55.4 °F 37% 30.01 in 10.0 mi Calm Calm - N/A   Partly Cloudy
7:53 PM 84.0 °F 83.3 °F 57.0 °F 40% 29.96 in 10.0 mi NW 9.2 mph - N/A   Clear
8:53 PM 81.0 °F 80.5 °F 54.0 °F 39% 29.98 in 10.0 mi North 6.9 mph - N/A   Partly Cloudy
9:53 PM 78.1 °F - 54.0 °F 43% 30.00 in 10.0 mi North 4.6 mph - N/A   Partly Cloudy
10:53 PM 75.9 °F - 55.9 °F 50% 30.02 in 10.0 mi North 3.5 mph - N/A   Scattered Clouds
11:53 PM 73.9 °F - 57.9 °F 57% 30.02 in 10.0 mi NE 5.8 mph - N/A   Scattered Clouds